Regional Weather Roundup
Issued by NWS

Home | Current Version | Previous Version | Graphics & Text | Print | Product List | Glossary Off
Versions: 1 2 3 4 5 6 7 8 9 10 11 12 13 14 15 16 17 18 19 20 21 22 23 24 25 26 27 28 29 30 31 32 33 34 35 36 37 38 39 40 41 42 43 44 45 46 47 48 49 50

000
ASUS43 KOAX 301602
RWRNE

WEATHER ROUNDUP FOR NEBRASKA
NATIONAL WEATHER SERVICE OMAHA NE
1100 AM CDT THU MAR 30 2017

NOTES: SATELLITE DATA IS BEING USED TO AUGMENT CLOUD COVER ABOVE
       12000 FEET.
       "FAIR" INDICATES FEW OR NO CLOUDS BELOW 12,000 FEET WITH NO
       SIGNIFICANT WEATHER AND/OR OBSTRUCTIONS TO VISIBILITY.

  * THESE STATIONS DO NOT REPORT WEATHER SUCH AS RAIN...SNOW OR FOG.

NEZ001>004-019>022-054>056-301700-
NEBRASKA PANHANDLE

CITY           SKY/WX    TMP DP  RH WIND       PRES   REMARKS
SCOTTSBLUFF    CLOUDY    41  36  82 SE3       29.77F
ALLIANCE       CLOUDY    43  38  82 S6        29.77S
CHADRON        CLOUDY    41  37  86 CALM      29.76F
KIMBALL        CLOUDY    49  41  74 NW8       29.78S
SIDNEY         CLOUDY    48  37  65 CALM      29.78S
$$

NEZ057>060-069>072-079>082-301700-
SOUTHWEST NEBRASKA

CITY           SKY/WX    TMP DP  RH WIND       PRES   REMARKS
NORTH PLATTE   CLOUDY    38  34  85 NE9       29.83S WCI  31
IMPERIAL       CLOUDY    40  36  86 N6        29.82S
LEXINGTON      CLOUDY    38  34  87 N14       29.83R WCI  29
MCCOOK         CLOUDY    39  36  89 NE9       29.82F WCI  33
OGALLALA       CLOUDY    41  38  89 CALM      29.80F
$$

NEZ005>010-023>029-035>040-094-301700-
NORTH CENTRAL NEBRASKA

CITY           SKY/WX    TMP DP  RH WIND       PRES   REMARKS
VALENTINE      CLOUDY    37  32  82 E6        29.84S WCI  32
AINSWORTH      CLOUDY    36  36  98 E3        29.83F
BROKEN BOW     CLOUDY    38  33  82 N10       29.82R WCI  31
O`NEILL        CLOUDY    39  38  96 N12       29.83S WCI  32
ORD            CLOUDY    41  35  79 N15       29.80S
THEDFORD       CLOUDY    36  35  96 NE5       29.83F WCI  32
$$

NEZ041-046>049-061>064-073>077-083>087-301700-
SOUTH CENTRAL NEBRASKA

CITY           SKY/WX    TMP DP  RH WIND       PRES   REMARKS
GRAND ISLAND   CLOUDY    39  38  96 N17       29.78S WCI  30
AURORA         CLOUDY    39  39  99 N16       29.77S WCI  30
HASTINGS       CLOUDY    40  36  86 N16       29.78R WCI  31
HEBRON         CLOUDY    40  37  90 N13G21    29.74R WCI  33
HOLDREGE       CLOUDY    39  34  82 N13G22    29.80S WCI  31
KEARNEY *      CLOUDY    39  34  81 N18       29.80S WCI  30
YORK           CLOUDY    39  39 100 N22       29.76S WCI  29
$$

NEZ011>018-030>034-042>045-301700-
NORTHEAST NEBRASKA

CITY           SKY/WX    TMP DP  RH WIND       PRES   REMARKS
NORFOLK        CLOUDY    39  36  89 N14       29.78S WCI  31
ALBION         CLOUDY    40  37  88 N9G17     29.79S WCI  34
BLAIR          CLOUDY    41  39  93 N20       29.71S
FREMONT        CLOUDY    40  39  97 N12G18    29.75S WCI  33
TEKAMAH        CLOUDY    41  38  89 N21       29.76R
WAYNE          CLOUDY    39  38  99 NE15      29.79S WCI  30
$$

NEZ050>053-065>068-078-088>093-301700-
SOUTHEAST NEBRASKA

CITY           SKY/WX    TMP DP  RH WIND       PRES   REMARKS
LINCOLN        CLOUDY    41  39  93 N20       29.73S
OMAHA EPPLEY   CLOUDY    43  38  82 N18       29.71S
BEATRICE       CLOUDY    41  41  99 N15G24    29.70R FOG
FALLS CITY     CLOUDY    44  42  93 N15G23    29.64R
NEBRASKA CITY  DRIZZLE   41  41 100 NE17      29.67R
PLATTSMOUTH    CLOUDY    42  39  89 N12G18    29.69R
$$

NEZ044-045-051>053-067-301700-
OMAHA AREA

CITY           SKY/WX    TMP DP  RH WIND       PRES   REMARKS
OMAHA EPPLEY   CLOUDY    43  38  82 N18       29.71S
BLAIR          CLOUDY    41  39  93 N20       29.71S
FREMONT        CLOUDY    40  39  97 N12G18    29.75S WCI  33
MILLARD        CLOUDY    44  41  88 N10       29.72S
OFFUTT AFB     CLOUDY    43  39  87 N14G21    29.70S
PLATTSMOUTH    CLOUDY    42  39  89 N12G18    29.69R
WAHOO          CLOUDY    40  39  93 N17       29.74R WCI  32
$$




USA.gov is the U.S. government's official web portal to all federal, state and local government web resources and services.